Weather History for PHKO - December, 2012

Change the Weather History Date:

Sunday, December 30, 2012

  Actual Average (PHTO) Record (PHTO)
Temperature  
Mean Temperature 75 °F 72 °F  
Max Temperature 82 °F 79 °F 86 °F (1995)
Min Temperature 68 °F 64 °F 59 °F (1999)
Degree Days  
Heating Degree Days 0 0  
Month to date heating degree days 0  
Since 1 July heating degree days 0  
Cooling Degree Days 10 7  
Month to date cooling degree days 219  
Year to date cooling degree days 3226  
Growing Degree Days 25 (Base 50)    
Moisture  
Dew Point 64 °F    
Average Humidity 68    
Maximum Humidity 79    
Minimum Humidity 51    
Precipitation  
Precipitation 0.00 in 0.32 in 7.51 in (2013)
Month to date precipitation 11.25  
Year to date precipitation 126.40  
Snow  
Snow 0.00 in - - ()
Month to date snowfall  
Since 1 July snowfall  
Snow Depth -    
Sea Level Pressure  
Sea Level Pressure 29.98 in    
Wind  
Wind Speed 7 mph (NNE)    
Max Wind Speed 16 mph    
Max Gust Speed -    
Visibility 10 miles    
Events      
T = Trace of Precipitation, MM = Missing Value Source: NWS Daily Summary

Daily Weather History Graph

Daily Weather History Graph

Search for Another Location

Airport or City:

Trip Planner

Search our weather history database for the weather conditions in past years. The results will help you decide how hot, cold, wet, or windy it might be!

Date:

Astronomy

Dec. 30, 2012 Rise Set
Actual Time 6:58 AM HST 5:55 PM HST
Civil Twilight 6:34 AM HST 6:19 PM HST
Nautical Twilight 6:07 AM HST 6:47 PM HST
Astronomical Twilight 5:39 AM HST 7:14 PM HST
Moon 8:16 PM HST 8:32 AM HST
Length of Visible Light 11h 45m
Length of Day
10h 57m
Waning Gibbous, 94% of the Moon is Illuminated
Dec 30
Waning Gibbous
Jan 4
Last Quarter
Jan 11
New
Jan 18
First Quarter
Jan 26
Full

Hourly Weather History & Observations

Time (HST) Temp. Heat Index Dew Point Humidity Pressure Visibility Wind Dir Wind Speed Gust Speed Precip Events Conditions
12:53 AM 72.0 °F - 63.0 °F 73% 29.96 in 10.0 mi ENE 5.8 mph - N/A   Partly Cloudy
1:53 AM 71.1 °F - 62.1 °F 73% 29.95 in 10.0 mi ENE 5.8 mph - N/A   Clear
2:53 AM 70.0 °F - 61.0 °F 73% 29.94 in 10.0 mi ENE 6.9 mph - N/A   Clear
3:53 AM 70.0 °F - 61.0 °F 73% 29.94 in 10.0 mi Calm Calm - N/A   Clear
4:53 AM 69.1 °F - 59.0 °F 70% 29.94 in 10.0 mi NE 3.5 mph - N/A   Clear
5:53 AM 68.0 °F - 59.0 °F 73% 29.96 in 10.0 mi NE 6.9 mph - N/A   Clear
6:53 AM 70.0 °F - 57.0 °F 63% 29.96 in 10.0 mi East 8.1 mph - N/A   Clear
7:53 AM 73.0 °F - 59.0 °F 61% 29.98 in 10.0 mi ESE 3.5 mph - N/A   Clear
8:53 AM 79.0 °F - 61.0 °F 54% 30.00 in 10.0 mi SSW 6.9 mph - N/A   Clear
9:53 AM 81.0 °F 82.2 °F 63.0 °F 54% 30.00 in 10.0 mi South 15.0 mph - N/A   Clear
10:53 AM 82.0 °F 83.0 °F 62.1 °F 51% 30.00 in 10.0 mi South 13.8 mph - N/A   Clear
11:53 AM 82.0 °F 83.8 °F 64.9 °F 56% 29.99 in 10.0 mi South 15.0 mph - N/A   Clear
12:53 PM 82.9 °F 84.0 °F 63.0 °F 51% 29.95 in 10.0 mi South 16.1 mph - N/A   Clear
1:53 PM 82.9 °F 84.4 °F 64.0 °F 53% 29.94 in 10.0 mi SSW 12.7 mph - N/A   Clear
2:53 PM 82.0 °F 84.1 °F 66.0 °F 58% 29.94 in 10.0 mi SSW 11.5 mph - N/A   Clear
3:53 PM 80.1 °F 82.3 °F 66.9 °F 64% 29.95 in 10.0 mi SSW 10.4 mph - N/A   Clear
4:53 PM 79.0 °F - 66.0 °F 64% 29.96 in 10.0 mi SW 9.2 mph - N/A   Clear
5:53 PM 78.1 °F - 68.0 °F 71% 29.98 in 10.0 mi West 5.8 mph - N/A   Clear
6:53 PM 77.0 °F - 68.0 °F 74% 30.00 in 10.0 mi West 5.8 mph - N/A   Mostly Cloudy
7:53 PM 75.9 °F - 68.0 °F 76% 30.03 in 10.0 mi NW 4.6 mph - N/A   Clear
8:53 PM 75.9 °F - 68.0 °F 76% 30.04 in 10.0 mi North 5.8 mph - N/A   Clear
9:32 PM 75.2 °F - 68.0 °F 78% 30.04 in 10.0 mi North 8.1 mph - N/A   Mostly Cloudy
9:53 PM 75.0 °F - 68.0 °F 79% 30.04 in 10.0 mi North 6.9 mph - N/A   Mostly Cloudy
10:02 PM 75.2 °F - 68.0 °F 78% 30.03 in 10.0 mi North 6.9 mph - N/A   Scattered Clouds
10:53 PM 75.0 °F - 68.0 °F 79% 30.03 in 10.0 mi North 8.1 mph - N/A   Partly Cloudy
11:37 PM 73.4 °F - 66.2 °F 78% 30.02 in 10.0 mi NE 3.5 mph - N/A   Mostly Cloudy
11:53 PM 75.0 °F - 68.0 °F 79% 30.02 in 10.0 mi NW 4.6 mph - N/A   Mostly Cloudy